Regional Weather Roundup
Issued by NWS Sterling, VA

Home | Current Version | Previous Version | Graphics & Text | Print | Product List | Glossary On
Versions: 1 2 3 4 5 6 7 8 9 10 11 12 13 14 15 16 17 18 19 20 21 22 23 24 25 26 27 28
000
ASUS41 KLWX 162211
RWRLWX

REGIONAL WEATHER ROUNDUP
NATIONAL WEATHER SERVICE BALTIMORE MD/WASHINGTON DC
500 PM EST THU NOV 16 2017

Note: "FAIR" indicates few or no clouds below 12,000 feet
with no significant weather and/or obstructions to visibility.
 TC=TEMPERATURE CELSIUS

 * =Non NWS site. Station does not report precipitation (e.g. rain,
    snow, etc.), thunder, or fog.

DCZ001-MDZ009-015-VAZ040>042-051-053>054-162300-
WASHINGTON METRO

CITY           SKY/WX    TMP DP  RH WIND       PRES   REMARKS
WASHINGTON NAT PTCLDY    56  31  38 NW16G26   29.97R
DULLES         PTCLDY    51  30  44 NW18G29   29.98R
ANDREWS AFB    CLEAR     54  32  43 NW13G21   29.94R
FT BELVOIR     CLEAR     55  30  38 NW16G24   29.96R
QUANTICO       PTCLDY    57  33  40 N17G26    29.97R
COLLEGE PARK*  CLEAR     53  32  44 N7        29.96R
LEESBURG*      CLEAR     50  34  53 NW16      30.00R
MANASSAS*      CLEAR     52  33  48 N15       29.99R
GAITHERSBURG*  CLEAR     49  30  48 NW12G18   29.98R

$$

MDZ006>007-011-014-162300-
BALTIMORE METRO

CITY           SKY/WX    TMP DP  RH WIND       PRES   REMARKS
BWI AIRPORT    PTCLDY    51  31  46 W14       29.96R
MD SCIENCE CTR   N/A     55  29  36 MISG      29.94R
MARTIN STATE   PTCLDY    54  34  47 W17G26    29.96R
ANNAPOLIS      CLEAR     57  36  45 NW12G28   29.94R
FORT MEADE*    CLEAR     52  32  46 NW9G22    29.98R

$$

MDZ012-015-019>023-162300-
MARYLAND EASTERN SHORE

CITY           SKY/WX    TMP DP  RH WIND       PRES   REMARKS
OCEAN CITY     CLEAR     55  42  61 W5        29.90R
SALISBURY      CLEAR     54  39  57 W6        29.90R
CAMBRIDGE*       N/A    N/A N/A N/A MISG        N/A
EASTON*        PTCLDY    55  36  47 N10G20    29.96R

$$

MDZ017>025-162300-
SOUTHERN MARYLAND

CITY           SKY/WX    TMP DP  RH WIND       PRES   REMARKS
PATUXENT RIVER PTCLDY    57  38  48 SW6       29.91R
ST INIGOES     CLEAR     57  40  52 W5        29.91R
LEONARDTOWN*   MOCLDY    57  37  47 SW5       29.93R

$$

MDZ003>005-162300-
NORTH CENTRAL MARYLAND

CITY           SKY/WX    TMP DP  RH WIND       PRES   REMARKS
FREDERICK*     PTCLDY    52  28  40 NW13G21   30.02R
HAGERSTOWN APT CLOUDY    46  32  58 NW12G22   30.01R
WESTMINSTER*   MOCLDY    48  34  57 W15G22    29.97R

$$

MDZ501>502-162300-
WESTERN MARYLAND

CITY           SKY/WX    TMP DP  RH WIND       PRES   REMARKS
OAKLAND*       CLOUDY    30  28  93 W13G22    29.99S WCI  20
CUMBERLAND*    CLOUDY    43  30  61 W20G30    30.11R

$$

VAZ025>031-162300-
SHENANDOAH VALLEY

CITY           SKY/WX    TMP DP  RH WIND       PRES   REMARKS
WINCHESTER*    CLEAR     43  30  61 NW15G21   30.01R
FRONT ROYAL*   CLEAR     50  32  50 NW6       29.99R
LURAY*         CLEAR     52  32  46 NW17      29.98R
NEW MARKET*    CLEAR     49  27  41 NW6G17    30.00R
STAUNTON*      CLEAR     51  29  42 NW12G17   30.01R
WAYNESBORO*    CLEAR     53  27  36 W6        29.98R

$$

WVZ021-048>050-054>055-162300-
EASTERN WEST VIRGINIA PANHANDLE

CITY           SKY/WX    TMP DP  RH WIND       PRES   REMARKS
MARTINSBURG    CLEAR     46  30  53 NW17G29   30.00R
PETERSBURG*    CLEAR     42  29  59 W14G22    30.05R

$$

VAZ036>039-050-162300-
CENTRAL FOOTHILLS

CITY           SKY/WX    TMP DP  RH WIND       PRES   REMARKS
CHARLOTTESVILL CLEAR     59  26  28 NW8       29.96R
CULPEPER*      CLEAR     58  27  31 N10G16    29.97R
ORANGE*        CLEAR     57  28  33 NW10G16   29.94R
GORDONSVILLE*  CLEAR     59  28  30 W6        29.95R
WARRENTON*     NOT AVBL

$$

VAZ055>057-162300-
NORTH AND CENTRAL PIEDMONT

CITY           SKY/WX    TMP DP  RH WIND       PRES   REMARKS
FREDERICKSBRG* CLEAR     60  34  38 NW9G17    29.93R
STAFFORD*      CLEAR     56  32  40 N14       29.98R

$$

NCZ024-NYZ072-PAZ021-071-VAZ022-071-162300-
OTHER REGIONAL OBSERVATIONS

CITY           SKY/WX    TMP DP  RH WIND       PRES   REMARKS
NEW YORK CITY  CLEAR     50  33  52 VRB6      29.83R
PHILADELPHIA   MOCLDY    54  30  40 W23G32    29.91R
PITTSBURGH     CLOUDY    39  31  72 W10G24    30.08R
ROANOKE        CLEAR     56  27  32 NW15      30.03R
RICHMOND       PTCLDY    60  33  36 W6        29.93R
RALEIGH        PTCLDY    62  33  33 W5        29.98R

$$

ANZ530>537-162300-
MARINE OBSERVATIONS

STATION/POSITION TIME  TEMP    WIND        PRES
                       AIR SEA DIR/SP/G
                 (UTC) (F)     (DEG/KT/KT) (MB)
THOMAS PT LIGHT  2200   56 54  310/ 14/ 16   N/A
BALT KEY BRIDGE  2148   54     290/ 19/ 22 1013.7R
COVE POINT       2148   59     320/  7/ 11 1013.7R
LEWISETTA        2148   60 52  300/  7/  9 1012.9R
SOLOMONS ISLAND  2148   59 56  260/  7/ 11 1012.6R
PINEY POINT      2136          270/  6/  7   N/A

$$





USA.gov is the U.S. government's official web portal to all federal, state and local government web resources and services.